TimeEST,TemperatureF,Dew PointF,Humidity,Sea Level PressureIn,VisibilityMPH,Wind Direction,Wind SpeedMPH,Gust SpeedMPH,PrecipitationIn,Events,Conditions,WindDirDegrees,DateUTC
12:00 AM,73.4,62.6,69,29.94,6.2,Calm,Calm,-,N/A,,Mostly Cloudy,0,2012-11-06 05:00:00
1:00 AM,72,66,75,29.93,9,Calm,Calm,,,,Mostly Cloudy,,2012-11-06 06:00:00
1:00 AM,71.6,66.2,83,29.93,6.2,Calm,Calm,-,N/A,,Mostly Cloudy,0,2012-11-06 06:00:00
2:00 AM,71.6,66.2,83,29.91,6.2,Calm,Calm,-,N/A,,Mostly Cloudy,0,2012-11-06 07:00:00
3:00 AM,71.6,66.2,83,29.91,6.2,Calm,Calm,-,N/A,,Mostly Cloudy,0,2012-11-06 08:00:00
4:00 AM,71,67,82,29.91,9,Calm,Calm,,,,Mostly Cloudy,,2012-11-06 09:00:00
4:00 AM,69.8,66.2,88,29.91,6.2,Calm,Calm,-,N/A,,Mostly Cloudy,0,2012-11-06 09:00:00
5:00 AM,69.8,66.2,88,29.90,6.2,Calm,Calm,-,N/A,,Mostly Cloudy,0,2012-11-06 10:00:00
6:00 AM,69.8,60.8,73,29.92,6.2,Calm,Calm,-,N/A,,Mostly Cloudy,0,2012-11-06 11:00:00
7:00 AM,71,62,67,29.93,9,Calm,Calm,,,,Mostly Cloudy,,2012-11-06 12:00:00
7:00 AM,69.8,62.6,78,29.93,6.2,Calm,Calm,-,N/A,,Mostly Cloudy,0,2012-11-06 12:00:00
8:00 AM,73.4,59.0,61,29.95,6.2,Calm,Calm,-,N/A,,Mostly Cloudy,0,2012-11-06 13:00:00
9:00 AM,77.0,62.6,61,29.95,6.2,ESE,3.5,-,N/A,,Mostly Cloudy,120,2012-11-06 14:00:00
10:00 AM,78,65,56,,9,,1.2,,,,Mostly Cloudy,,2012-11-06 15:00:00
10:00 AM,77.0,64.4,65,29.97,6.2,Variable,1.2,-,N/A,,Mostly Cloudy,0,2012-11-06 15:00:00
11:00 AM,78.8,60.8,54,29.96,6.2,Variable,1.2,-,N/A,,Mostly Cloudy,0,2012-11-06 16:00:00
12:00 PM,78.8,62.6,57,29.93,6.2,South,3.5,-,N/A,,Mostly Cloudy,170,2012-11-06 17:00:00
1:00 PM,80,72,72,29.91,9,,1.2,,,,Partly Cloudy,,2012-11-06 18:00:00
1:00 PM,80.6,73.4,79,29.90,6.2,Variable,1.2,-,N/A,,Mostly Cloudy,0,2012-11-06 18:00:00
2:00 PM,80.6,66.2,61,29.88,6.2,SSE,3.5,-,N/A,,Scattered Clouds,160,2012-11-06 19:00:00
3:00 PM,80.6,66.2,61,29.88,6.2,SSW,3.5,-,N/A,,Mostly Cloudy,200,2012-11-06 20:00:00
4:00 PM,83,69,54,29.88,9,SSE,3.5,,,,Scattered Clouds,160,2012-11-06 21:00:00
4:00 PM,82.4,69.8,66,29.88,6.2,SSE,3.5,-,N/A,,Scattered Clouds,160,2012-11-06 21:00:00
5:00 PM,77.0,64.4,65,29.89,6.2,SSE,3.5,-,N/A,,Mostly Cloudy,160,2012-11-06 22:00:00
6:00 PM,77.0,64.4,65,29.88,6.2,South,3.5,-,N/A,,Mostly Cloudy,180,2012-11-06 23:00:00
7:00 PM,77,70,73,29.89,9,Calm,Calm,,,,Partly Cloudy,,2012-11-07 00:00:00
7:00 PM,77.0,69.8,78,29.88,6.2,Calm,Calm,-,N/A,,Mostly Cloudy,0,2012-11-07 00:00:00
8:00 PM,75.2,60.8,61,29.91,6.2,Calm,Calm,-,N/A,,Mostly Cloudy,0,2012-11-07 01:00:00
9:00 PM,75.2,60.8,61,29.91,6.2,SW,4.6,-,N/A,,Mostly Cloudy,230,2012-11-07 02:00:00
10:00 PM,76,64,57,29.91,9,Calm,Calm,,,,Partly Cloudy,,2012-11-07 03:00:00
10:00 PM,75.2,64.4,69,29.91,6.2,Calm,Calm,-,N/A,,Mostly Cloudy,0,2012-11-07 03:00:00
11:00 PM,73.4,64.4,73,29.88,6.2,SSW,3.5,-,N/A,,Mostly Cloudy,200,2012-11-07 04:00:00